Regional Weather Roundup
Issued by NWS Goodland, KS

Home | Current Version | Previous Version | Graphics & Text | Print | Product List | Glossary On
Versions: 1 2 3 4 5 6 7 8 9 10 11 12 13 14 15 16 17 18 19 20 21 22 23 24 25 26 27 28 29 30 31 32 33 34 35 36 37 38 39 40 41 42 43 44 45 46 47 48 49 50
000
ASUS43 KGLD 010608
RWRGLD

GOODLAND FORECAST AREA HOURLY WEATHER ROUNDUP
NATIONAL WEATHER SERVICE GOODLAND KS
1200 AM MDT SAT AUG 01 2015

...OFFICIAL OBSERVATIONS...

CITY           SKY/WX    TMP DP  RH WIND       PRES   REMARKS
GOODLAND KS    CLEAR     72  58  61 SW14      30.20R
HILL CITY KS   CLEAR     75  64  68 SW7       30.12S
IMPERIAL NEB   CLEAR     70  58  65 S3        30.15S
MCCOOK NEB     PTCLDY    76  62  62 E5        30.14R
AKRON CO       CLEAR     70  54  56 S14       30.22F
BURLINGTON CO  CLEAR     66  57  72 S9        30.23S
LIMON CO       CLEAR     60  54  80 SE3       30.30S
$$

...UNOFFICIAL OBSERVATIONS...

CITY           SKY/WX    TMP DP  RH WIND       PRES   REMARKS
COLBY KS       PTCLDY    72  63  73 SW7       30.18S
NORTON KS      CLEAR     70  61  73 E5        30.13S
SHARON SPRINGS   N/A     68  61  78 N8          N/A
KIT CARSON CO    N/A     65  56  71 MISG        N/A
YUMA CO          N/A     69  58  68 SW10        N/A
$$


USA.gov is the U.S. government's official web portal to all federal, state and local government web resources and services.